Simultaneous Nadir Overpasses (SNOs) Predictions

Prediction of SNOs between AQUA and METOP-B Satellite Orbit:

Table of predicted SNOs for the next 14.0 days since TLE Epoch: 1/25/2014
Index Date (AQUA) Time (AQUA) Lat,Lon (AQUA) SZA (AQUA ) Date (METOP-B) Time (METOP-B) Lat,Lon (METOP-B) SZA (METOP-B ) Distance(km) Time Diff (sec)
1 01/25/2014 15:31:17 73.66, -58.22 92.61 01/25/2014 15:30:12 73.67, -58.25 92.63 1.02 65
2 01/25/2014 16:20:44 -73.74, 109.25 87.32 01/25/2014 16:20:52 -73.73, 109.22 87.33 1.65 8
3 01/25/2014 17:10:16 73.97, -83.62 92.93 01/25/2014 17:11:27 74.00, -82.81 92.91 25.19 71
4 01/28/2014 11:05:34 73.69, 8.16 91.92 01/28/2014 11:04:33 73.70, 8.24 91.94 2.93 61
5 01/28/2014 11:55:01 -73.76, 175.64 88.01 01/28/2014 11:55:13 -73.76, 175.70 88.02 1.95 12
6 01/28/2014 12:44:36 74.15, -17.59 92.40 01/28/2014 12:45:45 74.17, -15.95 92.36 49.94 69
7 01/31/2014 06:39:50 73.70, 74.58 91.17 01/31/2014 06:38:55 73.68, 74.59 91.16 2.30 55
8 01/31/2014 07:29:17 -73.77,-117.93 88.76 01/31/2014 07:29:34 -73.78,-117.83 88.76 3.56 17
9 01/31/2014 08:18:56 74.36, 48.34 91.88 01/31/2014 08:20:02 74.39, 51.02 91.79 80.50 66
10 02/03/2014 02:14:04 73.69, 141.03 90.37 02/03/2014 02:13:15 73.69, 141.04 90.38 0.46 49
11 02/03/2014 03:03:31 -73.76, -51.48 89.57 02/03/2014 03:03:55 -73.75, -51.49 89.59 1.78 24
12 02/05/2014 21:48:18 73.68,-152.49 89.51 02/05/2014 21:47:36 73.70,-152.52 89.54 2.75 42
13 02/05/2014 22:37:45 -73.75, 15.01 90.43 02/05/2014 22:38:16 -73.76, 14.94 90.42 2.36 31




NCC Satellite Simultaneous Nadir Overpasses (SNOs) Prediction Service
